OK1HRA-8 Weather Reports


time (UTC)temp
C
wind
direction
speed
KPH
gust
KPH
rain 1hr
cm
rain 24hr
cm
rain mn
cm
humidity
%
barometer
mb
20260831203705 17 247 9.7 20.9 0.00 0.00 0.30 6 1002.8
20260831203144 17 247 11.3 16.1 0.00 0.00 0.30 6 1002.8
20260831203120 17 225 8.0 12.9 0.00 0.00 0.30 6 1003.2
20260831202605 17 225 11.3 14.5 0.00 0.00 0.30 6 1003.2
20260831202050 17 225 9.7 14.5 0.00 0.00 0.30 6 1002.6
20260831201529 17 225 6.4 8.0 0.00 0.00 0.30 6 1002.7
20260831201512 17 225 8.0 11.3 0.00 0.00 0.30 6 1002.8
20260831200951 17 225 9.7 14.5 0.00 0.00 0.30 6 1002.4
20260831200436 17 225 11.3 16.1 0.00 0.00 0.30 6 1002.2
20260831195921 17 225 11.3 24.1 0.00 0.00 0.30 6 1002.6
20260831195400 17 225 4.8 4.8 0.00 0.00 0.30 6 1002.3
20260831195344 17 202 6.4 12.9 0.00 0.00 0.30 6 1002.4
20260831194823 17 225 4.8 8.0 0.00 0.00 0.30 5 1002.8
20260831194308 17 247 6.4 9.7 0.00 0.00 0.30 6 1002.4
20260831193753 18 225 4.8 8.0 0.00 0.00 0.30 5 1003.3
20260831193232 18 225 0.0 0.0 0.00 0.00 0.30 6 1002.8
20260831193216 18 247 3.2 6.4 0.00 0.00 0.30 6 1002.9
20260831192655 18 270 4.8 11.3 0.00 0.00 0.30 6 1002.2
20260831192139 18 270 4.8 11.3 0.00 0.00 0.30 6 1002.3
20260831191624 18 270 8.0 16.1 0.00 0.00 0.30 6 1001.9
20260831191103 18 270 8.0 11.3 0.00 0.00 0.30 6 1002.6
20260831191047 18 270 6.4 14.5 0.00 0.00 0.30 6 1002.4
20260831190526 18 270 8.0 14.5 0.00 0.00 0.30 6 1001.7
20260831190011 18 247 9.7 16.1 0.00 0.00 0.30 6 1001.6
20260831185456 18 270 8.0 14.5 0.00 0.00 0.30 6 1001.4
20260831184935 18 270 9.7 12.9 0.00 0.00 0.30 6 1002.0
20260831184920 18 270 8.0 16.1 0.00 0.00 0.30 6 1001.6
20260831184358 18 247 6.4 14.5 0.00 0.00 0.30 6 1001.6
20260831183843 18 225 8.0 14.5 0.00 0.00 0.30 5 1001.5
20260831183328 18 225 6.4 12.9 0.00 0.00 0.30 5 1001.9
20260831182807 18 247 8.0 11.3 0.00 0.00 0.30 6 1000.7
20260831182751 18 270 6.4 14.5 0.00 0.00 0.30 5 1000.7
20260831182230 18 225 4.8 11.3 0.00 0.00 0.30 5 1001.0
20260831181715 19 270 8.0 17.7 0.00 0.00 0.30 6 1000.6
20260831181200 19 247 8.0 16.1 0.00 0.00 0.30 5 1000.2
20260831180639 19 225 8.0 12.9 0.00 0.00 0.30 5 1001.3
20260831180616 19 225 8.0 12.9 0.00 0.00 0.30 5 1000.9
20260831180101 19 247 6.4 12.9 0.00 0.00 0.30 5 1001.0
20260831175546 19 225 9.7 17.7 0.00 0.00 0.30 5 1000.6
20260831175025 20 247 8.0 11.3 0.00 0.00 0.30 5 1000.5
20260831175008 20 225 9.7 17.7 0.00 0.00 0.30 5 1000.4
20260831174447 20 270 11.3 19.3 0.00 0.00 0.30 5 1000.1
20260831173932 20 225 11.3 20.9 0.00 0.00 0.30 5 1000.4
20260831173417 20 225 8.0 17.7 0.00 0.00 0.30 5 1000.6
20260831172856 20 247 0.0 0.0 0.00 0.00 0.30 5 1000.4
20260831172840 20 270 8.0 16.1 0.00 0.00 0.30 5 1000.2
20260831172319 20 270 9.7 20.9 0.00 0.00 0.30 5 999.8
20260831171804 20 225 8.0 19.3 0.00 0.00 0.30 5 1000.4
20260831171249 21 270 12.9 22.5 0.00 0.00 0.30 5 999.8
20260831170728 21 225 8.0 9.7 0.00 0.00 0.30 5 1000.2
20260831170712 21 270 9.7 19.3 0.00 0.00 0.30 5 1000.1
20260831170151 20 247 14.5 25.7 0.00 0.00 0.30 5 999.2
20260831165636 21 247 16.1 30.6 0.00 0.00 0.30 5 999.7
20260831165121 21 270 12.9 24.1 0.00 0.00 0.30 5 999.6
20260831164600 21 225 9.7 12.9 0.00 0.00 0.30 4 1000.9
20260831164536 21 225 12.9 24.1 0.00 0.00 0.30 4 999.9
20260831164021 21 225 19.3 40.2 0.00 0.00 0.30 5 999.5
20260831163506 21 247 17.7 29.0 0.00 0.00 0.30 5 999.7
20260831162945 21 247 19.3 27.4 0.00 0.00 0.30 5 999.6
20260831162921 21 247 17.7 29.0 0.00 0.00 0.30 5 999.6
20260831162406 21 247 20.9 35.4 0.00 0.00 0.30 4 999.7
20260831161851 21 225 17.7 35.4 0.00 0.00 0.30 4 1000.1
20260831161330 21 270 16.1 19.3 0.00 0.00 0.30 4 999.8
20260831161305 21 270 17.7 37.0 0.00 0.00 0.30 4 1001.3
20260831160750 21 247 20.9 37.0 0.00 0.00 0.30 5 998.8
20260831160235 21 225 25.7 38.6 0.00 0.00 0.30 5 999.7
20260831155714 22 270 12.9 16.1 0.00 0.00 0.30 5 1000.2
20260831155650 22 247 17.7 29.0 0.00 0.00 0.30 5 999.7
20260831155135 22 247 22.5 41.8 0.00 0.00 0.30 4 1000.8
20260831154620 22 225 22.5 33.8 0.00 0.00 0.30 4 1000.1
20260831154059 22 247 17.7 22.5 0.00 0.00 0.30 4 999.2
20260831154042 22 247 25.7 35.4 0.00 0.00 0.30 5 999.5
20260831153521 22 270 24.1 40.2 0.00 0.00 0.30 4 998.3
20260831153006 22 247 25.7 41.8 0.00 0.00 0.30 4 999.0
20260831152451 22 225 25.7 48.3 0.00 0.00 0.30 4 999.7
20260831151930 22 225 8.0 11.3 0.00 0.00 0.30 4 999.7
20260831151914 22 247 24.1 40.2 0.00 0.00 0.30 4 999.3
20260831151353 22 270 25.7 37.0 0.00 0.00 0.30 5 998.0
20260831150838 22 270 22.5 37.0 0.00 0.00 0.30 4 998.1
20260831150323 22 225 24.1 40.2 0.00 0.00 0.30 4 998.3
20260831145802 22 270 12.9 17.7 0.00 0.00 0.30 4 999.6
20260831145744 22 202 22.5 41.8 0.00 0.00 0.30 4 998.7
20260831145223 22 270 16.1 27.4 0.00 0.00 0.30 4 999.8
20260831144708 22 225 17.7 30.6 0.00 0.00 0.30 5 998.2
20260831144147 22 270 24.1 32.2 0.00 0.00 0.30 4 998.2
20260831144130 22 247 19.3 32.2 0.00 0.00 0.30 4 999.8
20260831143609 22 247 17.7 30.6 0.00 0.00 0.30 5 1000.0
20260831143054 22 270 22.5 37.0 0.00 0.00 0.30 5 998.1
20260831142539 22 270 24.1 40.2 0.00 0.00 0.30 5 999.0
20260831142018 22 180 4.8 6.4 0.00 0.00 0.30 4 1000.6
20260831141955 22 225 22.5 41.8 0.00 0.00 0.30 5 999.8
20260831141439 22 225 29.0 46.7 0.00 0.00 0.30 5 999.0
20260831140924 22 202 19.3 29.0 0.00 0.00 0.30 4 999.9
20260831140403 22 225 16.1 25.7 0.00 0.00 0.30 5 1000.1
20260831140339 22 247 19.3 32.2 0.00 0.00 0.30 5 998.7
20260831135824 21 247 25.7 38.6 0.00 0.00 0.30 5 999.4
20260831135309 22 225 25.7 41.8 0.00 0.00 0.30 5 999.6
20260831134748 22 247 24.1 30.6 0.00 0.00 0.30 5 999.6
20260831134731 22 225 25.7 46.7 0.00 0.00 0.30 5 1000.3
20260831134210 22 247 27.4 38.6 0.00 0.00 0.30 5 999.7
20260831133655 22 270 24.1 37.0 0.00 0.00 0.30 5 998.8
20260831133140 22 270 22.5 33.8 0.00 0.00 0.30 5 998.9
20260831132619 22 270 14.5 19.3 0.00 0.00 0.30 5 1000.4
20260831132603 22 292 19.3 37.0 0.00 0.00 0.30 5 1000.5
20260831132048 22 270 16.1 33.8 0.00 0.00 0.30 5 1000.5
20260831131527 22 270 20.9 35.4 0.00 0.00 0.30 5 999.3
20260831131012 22 270 22.5 38.6 0.00 0.00 0.30 5 998.0
20260831130451 22 270 22.5 32.2 0.00 0.00 0.30 5 998.6
20260831130435 22 270 20.9 40.2 0.00 0.00 0.30 5 998.5
20260831125914 22 247 24.1 37.0 0.00 0.00 0.30 5 998.8
20260831125359 22 270 19.3 38.6 0.00 0.00 0.30 5 998.1
20260831124844 21 270 22.5 37.0 0.00 0.00 0.30 5 1000.0
20260831124323 21 270 19.3 29.0 0.00 0.00 0.30 5 998.7
20260831124259 21 270 19.3 37.0 0.00 0.00 0.30 5 998.4
20260831123744 22 270 22.5 45.1 0.00 0.00 0.30 5 997.8
20260831123229 22 270 24.1 40.2 0.00 0.00 0.30 5 997.7
20260831122708 22 225 22.5 30.6 0.00 0.00 0.30 5 999.8
20260831122651 22 225 19.3 38.6 0.00 0.00 0.30 5 998.9
20260831122130 22 270 20.9 33.8 0.00 0.00 0.30 5 998.5
20260831121615 21 247 24.1 38.6 0.00 0.00 0.30 5 998.4
20260831121100 21 225 24.1 38.6 0.00 0.00 0.30 6 998.4
20260831120539 21 270 16.1 29.0 0.00 0.00 0.30 5 998.5
20260831120523 21 270 24.1 38.6 0.00 0.00 0.30 5 998.3
20260831120002 21 202 16.1 27.4 0.00 0.00 0.30 5 999.8
20260831115447 21 270 16.1 30.6 0.00 0.00 0.30 6 999.7
20260831114932 21 270 19.3 37.0 0.00 0.00 0.30 5 997.9
20260831114411 20 292 8.0 11.3 0.00 0.00 0.30 6 998.4
20260831114348 20 270 20.9 32.2 0.00 0.00 0.30 6 997.9
20260831113833 20 270 19.3 35.4 0.00 0.00 0.30 6 997.0
20260831113318 20 247 19.3 35.4 0.00 0.00 0.30 6 997.6
20260831112757 20 247 24.1 33.8 0.00 0.00 0.30 6 996.6
20260831112740 20 270 27.4 45.1 0.00 0.00 0.30 6 997.1
20260831112225 20 247 22.5 41.8 0.00 0.00 0.30 6 997.8
20260831111704 20 270 24.1 37.0 0.00 0.00 0.30 6 998.2
20260831111149 21 270 14.5 24.1 0.00 0.00 0.30 6 999.6
20260831110628 21 270 16.1 22.5 0.00 0.00 0.30 6 998.0
20260831110612 21 270 17.7 32.2 0.00 0.00 0.30 6 998.4
20260831110051 20 247 22.5 38.6 0.00 0.00 0.30 6 998.3
20260831105536 20 292 19.3 37.0 0.00 0.00 0.30 7 998.6
20260831105021 20 247 12.9 27.4 0.00 0.00 0.30 7 1000.0
20260831104500 19 292 4.8 6.4 0.00 0.00 0.30 7 999.4
20260831104444 19 270 17.7 27.4 0.00 0.00 0.30 7 999.1
20260831103923 19 270 20.9 32.2 0.00 0.00 0.30 7 998.4
20260831103408 19 270 20.9 37.0 0.00 0.00 0.30 8 998.2
20260831102853 20 270 14.5 25.7 0.00 0.00 0.30 8 1000.5
20260831102332 19 270 19.3 24.1 0.00 0.00 0.30 8 1000.3
20260831102316 19 270 19.3 29.0 0.00 0.00 0.30 8 1000.0
20260831101755 18 247 17.7 32.2 0.00 0.00 0.30 8 1000.8
20260831101240 19 247 17.7 29.0 0.00 0.00 0.30 8 1000.1
20260831100725 19 270 14.5 27.4 0.00 0.00 0.30 9 1000.9
20260831100204 18 225 17.7 22.5 0.00 0.00 0.30 9 1001.7
20260831100148 18 225 16.1 27.4 0.00 0.00 0.30 9 1001.4
20260831095627 18 247 16.1 27.4 0.00 0.00 0.30 9 1002.7
20260831095112 17 247 14.5 25.7 0.00 0.00 0.30 9 1001.3
20260831094557 18 270 17.7 30.6 0.00 0.00 0.30 9 1002.0
20260831094036 18 270 16.1 22.5 0.00 0.00 0.30 9 1002.0
20260831094020 18 247 17.7 30.6 0.00 0.00 0.30 9 1001.9
20260831093459 17 225 14.5 29.0 0.00 0.00 0.30 9 1003.1
20260831092944 17 247 12.9 22.5 0.00 0.00 0.30 10 1003.6
20260831092429 17 270 12.9 29.0 0.00 0.00 0.30 10 1003.9
20260831091908 17 270 11.3 16.1 0.00 0.00 0.30 10 1002.6
20260831091845 17 270 17.7 32.2 0.00 0.00 0.30 10 1003.1
20260831091330 16 225 16.1 25.7 0.00 0.00 0.30 9 1004.1
20260831090815 16 247 16.1 29.0 0.00 0.00 0.30 10 1002.0
20260831090254 16 247 16.1 22.5 0.00 0.00 0.30 9 1003.3
20260831090237 16 202 16.1 29.0 0.00 0.00 0.30 9 1003.8
20260831085716 16 225 12.9 22.5 0.00 0.00 0.30 9 1003.6
20260831085201 16 202 11.3 30.6 0.00 0.00 0.30 9 1003.6
20260831084646 16 225 12.9 24.1 0.00 0.00 0.30 9 1003.8
20260831084125 16 247 11.3 16.1 0.00 0.00 0.30 10 1003.8
20260831084107 16 247 11.3 20.9 0.00 0.00 0.30 10 1004.0
20260831083547 16 225 8.0 16.1 0.00 0.00 0.30 10 1004.1
20260831083031 16 270 9.7 24.1 0.00 0.00 0.30 10 1005.2
20260831082510 16 270 0.0 0.0 0.00 0.00 0.30 10 1004.6
20260831082453 16 225 8.0 14.5 0.00 0.00 0.30 10 1004.2
20260831081932 16 247 9.7 17.7 0.00 0.00 0.30 10 1003.7
20260831081417 16 225 9.7 17.7 0.00 0.00 0.30 9 1004.0
20260831080902 16 247 9.7 19.3 0.00 0.00 0.30 9 1003.2
20260831080341 16 225 8.0 12.9 0.00 0.00 0.30 10 1003.8
20260831080326 16 247 8.0 17.7 0.00 0.00 0.30 10 1003.5
20260831075805 15 225 8.0 12.9 0.00 0.00 0.30 9 1003.8
20260831075249 15 225 8.0 14.5 0.00 0.00 0.30 9 1003.7
20260831074735 15 225 8.0 16.1 0.00 0.00 0.30 10 1003.9
20260831074214 15 225 4.8 6.4 0.00 0.00 0.30 9 1003.4
20260831074158 15 225 6.4 11.3 0.00 0.00 0.30 9 1003.6
20260831073643 15 180 6.4 16.1 0.00 0.00 0.30 9 1004.3
20260831073128 15 202 8.0 16.1 0.00 0.00 0.30 10 1005.6
20260831072607 15 247 6.4 12.9 0.00 0.00 0.30 10 1004.1
20260831072046 15 247 0.0 0.0 0.00 0.00 0.30 10 1004.1
20260831072030 15 247 9.7 17.7 0.00 0.00 0.30 9 1004.4
20260831071515 15 202 9.7 14.5 0.00 0.00 0.30 9 1004.0
20260831070954 15 225 6.4 11.3 0.00 0.00 0.30 9 1003.5
20260831070439 14 202 6.4 11.3 0.00 0.00 0.30 9 1003.8
20260831065918 14 225 6.4 6.4 0.00 0.00 0.28 9 1004.4
20260831065902 14 180 6.4 9.7 0.00 0.00 0.30 9 1004.4
20260831065341 14 202 6.4 8.0 0.00 0.00 0.28 9 1004.4
20260831064826 14 202 4.8 8.0 0.00 0.00 0.28 9 1004.2
20260831064311 14 225 4.8 8.0 0.00 0.00 0.28 9 1004.5
20260831063750 14 225 6.4 8.0 0.00 0.00 0.25 9 1004.7
20260831063734 14 225 6.4 9.7 0.00 0.00 0.28 9 1004.4
20260831063213 14 225 4.8 8.0 0.00 0.00 0.25 9 1004.5
20260831062658 14 202 0.0 4.8 0.00 0.00 0.23 9 1004.6
20260831062143 14 225 0.0 3.2 0.00 0.00 0.23 9 1005.1
20260831061622 14 180 0.0 0.0 0.00 0.00 0.20 9 1006.4
20260831061606 14 157 0.0 4.8 0.00 0.00 0.20 9 1006.7
20260831061045 15 270 8.0 14.5 0.00 0.00 0.20 9 1006.4
20260831060530 15 270 14.5 27.4 0.00 0.00 0.15 10 1006.7
20260831060015 15 292 19.3 37.0 0.00 0.00 0.13 10 1007.5
20260831055454 15 292 27.4 40.2 0.00 0.00 0.10 9 1006.9
20260831055438 15 270 22.5 37.0 0.00 0.00 0.15 9 1007.0
20260831054917 15 270 24.1 40.2 0.00 0.00 0.10 9 1007.2
20260831054401 15 292 32.2 49.9 0.00 0.00 0.05 9 1006.1
20260831053846 16 315 17.7 45.1 0.00 0.00 0.00 8 1003.0
20260831053326 16 292 6.4 8.0 0.00 0.00 0.00 8 1001.4
20260831053302 16 315 4.8 6.4 0.00 0.00 0.00 8 1001.2
20260831052747 16 270 0.0 0.0 0.00 0.00 0.00 7 1000.5
20260831052232 16 90 0.0 0.0 0.00 0.00 0.00 7 1000.7
20260831051711 16 112 0.0 0.0 0.00 0.00 0.00 7 1000.9
20260831051647 16 135 0.0 0.0 0.00 0.00 0.00 7 1000.5
20260831051131 16 135 0.0 0.0 0.00 0.00 0.00 7 1000.6
20260831050616 16 135 0.0 0.0 0.00 0.00 0.00 7 1000.8
20260831050055 16 135 0.0 0.0 0.00 0.00 0.00 7 999.6
20260831050031 16 135 4.8 6.4 0.00 0.00 0.00 7 999.3
20260831045516 17 135 4.8 6.4 0.00 0.00 0.00 6 999.6
20260831045001 17 135 4.8 6.4 0.00 0.00 0.00 6 999.7
20260831044440 16 135 0.0 0.0 0.00 0.00 0.00 7 1000.3
20260831044423 16 135 0.0 0.0 0.00 0.00 0.00 7 1000.2
20260831043902 16 135 0.0 0.0 0.00 0.00 0.00 7 1000.1
20260831043347 16 135 0.0 0.0 0.00 0.00 0.00 7 1000.5
20260831042832 16 135 0.0 0.0 0.00 0.00 0.00 7 1000.4
20260831042311 16 180 0.0 0.0 0.00 0.00 0.00 7 1000.5
20260831042255 16 180 0.0 4.8 0.00 0.00 0.00 7 1000.5
20260831041734 16 180 0.0 4.8 0.00 0.00 0.00 7 1000.4
20260831041219 16 180 0.0 4.8 0.00 0.00 0.00 7 1000.7
20260831040704 15 180 0.0 0.0 0.00 0.00 0.00 7 1001.4
20260831040143 15 180 0.0 0.0 0.00 0.00 0.00 7 1001.5
20260831040120 15 202 0.0 0.0 0.00 0.00 0.00 7 1001.6
20260831035605 15 202 0.0 4.8 0.00 0.00 0.00 8 1000.5
20260831035050 15 180 3.2 6.4 0.00 0.00 0.00 7 1000.9
20260831034529 16 202 4.8 4.8 0.00 0.00 0.00 7 1000.4
20260831034504 16 180 0.0 6.4 0.00 0.00 0.00 7 1000.4
20260831033949 16 180 0.0 0.0 0.00 0.00 0.00 7 1000.7
20260831033434 16 202 0.0 0.0 0.00 0.00 0.00 7 1000.6
20260831032913 15 180 0.0 0.0 0.00 0.00 0.00 7 1000.9
20260831032857 15 180 4.8 6.4 0.00 0.00 0.00 7 1001.0
20260831032336 15 180 4.8 8.0 0.00 0.00 0.00 7 1000.7
20260831031820 15 180 4.8 8.0 0.00 0.00 0.00 7 1000.2
20260831031305 16 180 0.0 0.0 0.00 0.00 0.00 6 1000.8
20260831030745 16 225 0.0 0.0 0.00 0.00 0.00 7 1001.0
20260831030729 16 225 0.0 0.0 0.00 0.00 0.00 7 1001.0
20260831030214 17 180 6.4 8.0 0.00 0.00 0.00 7 1001.9
20260831025653 17 270 6.4 8.0 0.00 0.00 0.00 7 1000.9
20260831025138 17 270 6.4 11.3 0.00 0.00 0.00 7 1000.9
20260831024617 17 225 6.4 8.0 0.00 0.00 0.00 7 1001.1
20260831024601 17 270 6.4 11.3 0.00 0.00 0.00 7 1001.0
20260831024040 17 247 6.4 8.0 0.00 0.00 0.00 7 1001.3
20260831023525 17 270 4.8 6.4 0.00 0.00 0.00 7 1001.2
20260831023010 16 247 4.8 6.4 0.00 0.00 0.00 7 1000.6
20260831022449 16 225 0.0 0.0 0.00 0.00 0.00 7 1000.8
20260831022425 16 202 4.8 8.0 0.00 0.00 0.00 7 1000.8
20260831021911 17 225 6.4 9.7 0.00 0.00 0.00 7 1002.5
20260831021355 17 247 6.4 9.7 0.00 0.00 0.00 7 1001.3
20260831020834 17 270 6.4 9.7 0.00 0.00 0.00 7 1001.6
20260831020810 17 247 8.0 9.7 0.00 0.00 0.00 7 1001.5
20260831020255 17 247 8.0 11.3 0.00 0.00 0.00 7 1001.5
20260831015740 17 225 8.0 11.3 0.00 0.00 0.00 7 1001.5
20260831015219 17 247 4.8 6.4 0.00 0.00 0.00 7 1001.8
20260831015202 17 247 6.4 9.7 0.00 0.00 0.00 7 1001.7
20260831014647 17 270 8.0 11.3 0.00 0.00 0.00 7 1001.6
20260831014126 17 247 6.4 9.7 0.00 0.00 0.00 7 1001.8
20260831013611 17 247 6.4 9.7 0.00 0.00 0.00 7 1001.7
20260831013050 17 247 6.4 6.4 0.00 0.00 0.00 7 1001.5
20260831013033 17 270 8.0 11.3 0.00 0.00 0.00 7 1001.5
20260831012512 17 247 8.0 11.3 0.00 0.00 0.00 7 1001.5
20260831011957 17 247 8.0 9.7 0.00 0.00 0.00 7 1001.5
20260831011436 17 247 6.4 9.7 0.00 0.00 0.00 7 1001.8
20260831011419 17 247 8.0 11.3 0.00 0.00 0.00 7 1001.6
20260831010858 17 270 6.4 9.7 0.00 0.00 0.00 7 1001.4
20260831010343 17 270 6.4 11.3 0.00 0.00 0.00 7 1001.6
20260831005828 17 270 4.8 8.0 0.00 0.00 0.00 7 1001.7
20260831005307 18 270 6.4 8.0 0.00 0.00 0.00 7 1001.9
20260831005251 18 270 6.4 9.7 0.00 0.00 0.00 7 1001.9
20260831004730 18 270 4.8 9.7 0.00 0.00 0.00 7 1001.7
20260831004215 18 270 6.4 9.7 0.00 0.00 0.00 7 1001.5
20260831003700 18 270 4.8 8.0 0.00 0.00 0.00 7 1001.6
20260831003139 18 270 4.8 6.4 0.00 0.00 0.00 7 1001.7
20260831003123 18 270 6.4 9.7 0.00 0.00 0.00 7 1001.8
20260831002608 18 270 4.8 8.0 0.00 0.00 0.00 7 1001.7
20260831002047 18 270 4.8 8.0 0.00 0.00 0.00 7 1001.6
20260831001532 18 270 6.4 11.3 0.00 0.00 0.00 7 1001.5
20260831001011 18 270 6.4 6.4 0.00 0.00 0.00 7 1001.4
20260831000953 18 225 6.4 9.7 0.00 0.00 0.00 7 1001.3
20260831000432 18 270 4.8 6.4 0.00 0.00 0.00 6 1001.2
20260830235917 18 270 4.8 8.0 0.00 0.00 0.00 6 1001.5
20260830235356 18 270 0.0 0.0 0.00 0.00 0.00 6 1001.2
20260830235340 18 270 6.4 9.7 0.00 0.00 0.00 6 1001.2
20260830234819 18 270 4.8 8.0 0.00 0.00 0.00 6 1001.4
20260830234304 19 270 4.8 8.0 0.00 0.00 0.00 6 1001.3
20260830233749 18 270 4.8 8.0 0.00 0.00 0.00 6 1001.3
20260830233228 18 247 4.8 6.4 0.00 0.00 0.00 6 1001.2
20260830233212 18 247 6.4 9.7 0.00 0.00 0.00 6 1001.2
20260830232651 18 225 6.4 8.0 0.00 0.00 0.00 6 1001.5
20260830232136 18 247 4.8 9.7 0.00 0.00 0.00 6 1001.3
20260830231621 18 225 6.4 9.7 0.00 0.00 0.00 6 1001.4
20260830231100 18 270 6.4 6.4 0.00 0.00 0.00 6 1001.6
20260830231036 18 225 6.4 9.7 0.00 0.00 0.00 6 1001.7
20260830230521 19 270 6.4 9.7 0.00 0.00 0.00 6 1000.8
20260830230006 19 247 6.4 12.9 0.00 0.00 0.00 6 1001.2
20260830225445 19 225 6.4 8.0 0.00 0.00 0.00 6 1001.4
20260830225429 19 247 8.0 12.9 0.00 0.00 0.00 6 1001.5
20260830224908 19 247 9.7 14.5 0.00 0.00 0.00 6 1001.6
20260830224352 19 247 8.0 12.9 0.00 0.00 0.00 6 1001.4
20260830223837 19 225 9.7 12.9 0.00 0.00 0.00 6 1001.4
20260830223316 18 225 6.4 6.4 0.00 0.00 0.00 6 1001.4
20260830223301 18 225 8.0 11.3 0.00 0.00 0.00 6 1001.1
20260830222746 19 225 9.7 12.9 0.00 0.00 0.00 6 1001.6
20260830222231 19 225 8.0 12.9 0.00 0.00 0.00 6 1001.7
20260830221710 19 225 6.4 9.7 0.00 0.00 0.00 6 1001.8
20260830221148 19 247 6.4 8.0 0.00 0.00 0.00 6 1001.2
20260830221133 19 225 8.0 11.3 0.00 0.00 0.00 6 1001.2
20260830220618 19 247 8.0 12.9 0.00 0.00 0.00 6 1001.2
20260830220057 20 225 6.4 11.3 0.00 0.00 0.00 6 1000.9
20260830215542 19 247 6.4 9.7 0.00 0.00 0.00 6 1001.2
20260830215021 20 225 6.4 9.7 0.00 0.00 0.00 5 1001.6
20260830215005 20 202 6.4 9.7 0.00 0.00 0.00 5 1001.7
20260830214444 20 202 4.8 6.4 0.00 0.00 0.00 6 1001.6
20260830213929 20 225 6.4 9.7 0.00 0.00 0.00 5 1001.3
20260830213414 19 202 6.4 8.0 0.00 0.00 0.00 5 1000.8
20260830212853 20 225 6.4 8.0 0.00 0.00 0.00 5 1001.3
20260830212829 20 225 4.8 6.4 0.00 0.00 0.00 5 1001.5
20260830212314 20 225 3.2 6.4 0.00 0.00 0.00 5 1001.1
20260830211759 20 225 4.8 6.4 0.00 0.00 0.00 5 1001.2
20260830211238 20 225 3.2 4.8 0.00 0.00 0.00 5 1000.9
20260830211217 20 225 4.8 6.4 0.00 0.00 0.00 5 1001.1
20260830210702 20 225 0.0 4.8 0.00 0.00 0.00 5 1001.3
20260830210147 20 225 3.2 4.8 0.00 0.00 0.00 5 1001.4
20260830205623 20 225 0.0 0.0 0.00 0.00 0.00 5 1001.5
20260830205558 20 225 4.8 6.4 0.00 0.00 0.00 5 1001.6
20260830204506 20 247 4.8 4.8 0.00 0.00 0.00 5 1001.2
20260830204450 20 225 4.8 6.4 0.00 0.00 0.00 5 1001.3